Carlsbad, CA

2:58 AM PDT on September 21, 2017 (GMT -0700)
McClellan-Palomar

Weather History for KCRQ - January, 2014

Change the Weather History Date:

Friday, January 3, 2014

  Actual Average Record
Temperature  
Mean Temperature 55 °F -  
Max Temperature 64 °F 62 °F 79 °F (2001)
Min Temperature 46 °F 46 °F 42 °F (2000)
Degree Days  
Heating Degree Days 10    
Growing Degree Days 5 (Base 50)    
Moisture  
Dew Point 43 °F    
Average Humidity 67    
Maximum Humidity 90    
Minimum Humidity 40    
Precipitation  
Precipitation 0.00 in - - ()
Sea Level Pressure  
Sea Level Pressure 29.97 in    
Wind  
Wind Speed 1 mph (West)    
Max Wind Speed 6 mph    
Max Gust Speed -    
Visibility 9 miles    
Events      
Averages and records for this station are not official NWS values.
T = Trace of Precipitation, MM = Missing Value Source: NWS Daily Summary

Daily Weather History Graph

Daily Weather History Graph

Search for Another Location

Airport or City:

Trip Planner

Search our weather history database for the weather conditions in past years. The results will help you decide how hot, cold, wet, or windy it might be!

Date:

Astronomy

Jan. 03, 2014 Rise Set
Actual Time 6:52 AM PST 4:54 PM PST
Civil Twilight 6:25 AM PST 5:22 PM PST
Nautical Twilight 5:54 AM PST 5:52 PM PST
Astronomical Twilight 5:24 AM PST 6:22 PM PST
Moon 8:31 AM PST (1/3) 7:58 PM PST (1/3)
Length of Visible Light 10h 56m
Length of Day
10h 01m
Waxing Crescent, 8% of the Moon is Illuminated
Jan 3
Waxing Crescent
Jan 7
First Quarter
Jan 15
Full
Jan 23
Last Quarter
Jan 30
New

Hourly Weather History & Observations

Time (PST) Temp. Dew Point Humidity Pressure Visibility Wind Dir Wind Speed Gust Speed Precip Events Conditions
12:53 AM 48.9 °F 37.9 °F 66% 30.00 in 10.0 mi Calm Calm - N/A   Clear
1:53 AM 48.9 °F 37.0 °F 64% 30.00 in 10.0 mi Calm Calm - N/A   Clear
2:53 AM 46.9 °F 36.0 °F 66% 30.00 in 10.0 mi Calm Calm - N/A   Clear
3:53 AM 46.9 °F 34.0 °F 61% 29.98 in 10.0 mi East 4.6 mph - N/A   Clear
4:53 AM 46.0 °F 35.1 °F 66% 29.99 in 10.0 mi Calm Calm - N/A   Clear
5:53 AM 46.0 °F 37.9 °F 73% 29.99 in 10.0 mi Calm Calm - N/A   Clear
6:53 AM 46.0 °F 37.0 °F 71% 30.01 in 10.0 mi Calm Calm - N/A   Clear
7:53 AM 51.1 °F 33.1 °F 50% 30.02 in 10.0 mi Calm Calm - N/A   Clear
8:53 AM 57.0 °F 36.0 °F 45% 30.02 in 10.0 mi Calm Calm - N/A   Clear
9:53 AM 61.0 °F 37.9 °F 42% 30.02 in 10.0 mi WSW 4.6 mph - N/A   Clear
10:53 AM 63.0 °F 39.0 °F 41% 29.99 in 10.0 mi West 5.8 mph - N/A   Clear
11:53 AM 61.0 °F 46.9 °F 60% 29.95 in 10.0 mi West 4.6 mph - N/A   Clear
12:53 PM 63.0 °F 46.0 °F 54% 29.93 in 10.0 mi Calm Calm - N/A   Clear
1:53 PM 64.9 °F 39.9 °F 40% 29.91 in 10.0 mi West 3.5 mph - N/A   Clear
2:53 PM 62.1 °F 51.1 °F 67% 29.90 in 10.0 mi West 4.6 mph - N/A   Clear
3:53 PM 59.0 °F 51.1 °F 75% 29.92 in 8.0 mi Calm Calm - N/A   Clear
4:53 PM 55.9 °F 52.0 °F 87% 29.93 in 6.0 mi Calm Calm - N/A   Clear
5:53 PM 55.9 °F 52.0 °F 87% 29.94 in 7.0 mi Calm Calm - N/A   Clear
6:53 PM 54.0 °F 51.1 °F 90% 29.94 in 5.0 mi Calm Calm - N/A   Clear
7:53 PM 54.0 °F 51.1 °F 90% 29.95 in 5.0 mi Calm Calm - N/A   Clear
8:53 PM 52.0 °F 48.9 °F 89% 29.97 in 4.0 mi Calm Calm - N/A   Clear
9:53 PM 53.1 °F 48.9 °F 86% 29.97 in 5.0 mi ENE 4.6 mph - N/A   Clear
10:53 PM 54.0 °F 46.0 °F 75% 29.98 in 9.0 mi Calm Calm - N/A   Clear
11:53 PM 53.1 °F 44.1 °F 71% 29.97 in 10.0 mi Calm Calm - N/A   Clear